• en Suisse
  • Liste des pays
  • À 7 jours
  • Température de l'eau
  • Carte satellitaire
  • Carte météo
  • Widgets météo
  • user-avatar
    Se connecter

    Météo par heure à Ajman

    Ce jour, 20 Août, Lundi

    Heure Température Précipitation Vent Pression Humidité
    00:00 +37°C° 0 mm 2 m/s 748 mmHg 63%
    01:00 +37°C° 0 mm 2 m/s 748 mmHg 65%
    02:00 +37°C° 0 mm 2 m/s 748 mmHg 67%
    03:00 +35°C° 0 mm 1 m/s 748 mmHg 69%
    04:00 +35°C° 0 mm 1 m/s 747 mmHg 72%
    05:00 +35°C° 0 mm 1 m/s 748 mmHg 72%
    06:00 +35°C° 0 mm 1 m/s 748 mmHg 71%
    07:00 +35°C° 0 mm 1 m/s 749 mmHg 71%
    08:00 +36°C° 0 mm 1 m/s 749 mmHg 64%
    09:00 +39°C° 0 mm 1 m/s 749 mmHg 57%
    10:00 +40°C° 0 mm 2 m/s 749 mmHg 53%
    11:00 +41°C° 0 mm 2 m/s 749 mmHg 48%
    12:00 +43°C° 0 mm 3 m/s 749 mmHg 44%
    13:00 +45°C° 0 mm 3 m/s 749 mmHg 39%
    14:00 +44°C° 0 mm 4 m/s 749 mmHg 42%
    15:00 +43°C° 0 mm 4 m/s 748 mmHg 45%
    16:00 +43°C° 0 mm 4 m/s 748 mmHg 48%
    17:00 +42°C° 0 mm 4 m/s 748 mmHg 52%
    18:00 +40°C° 0 mm 3 m/s 748 mmHg 56%
    19:00 +38°C° 0 mm 3 m/s 748 mmHg 60%
    20:00 +38°C° 0 mm 2 m/s 748 mmHg 63%
    21:00 +37°C° 0 mm 2 m/s 748 mmHg 65%
    22:00 +37°C° 0 mm 2 m/s 749 mmHg 67%
    23:00 +36°C° 0 mm 2 m/s 748 mmHg 68%

    Demain, 21 Août, Mardi

    Heure Température Précipitation Vent Pression Humidité
    00:00 +35°C° 0 mm 1 m/s 748 mmHg 69%
    01:00 +35°C° 0 mm 1 m/s 748 mmHg 70%
    02:00 +35°C° 0 mm 1 m/s 748 mmHg 71%
    03:00 +34°C° 0 mm 1 m/s 748 mmHg 71%
    04:00 +35°C° 0 mm 2 m/s 748 mmHg 72%
    05:00 +35°C° 0 mm 2 m/s 749 mmHg 71%
    06:00 +35°C° 0 mm 3 m/s 749 mmHg 70%
    07:00 +35°C° 0 mm 3 m/s 749 mmHg 70%
    08:00 +37°C° 0 mm 3 m/s 749 mmHg 62%
    09:00 +39°C° 0 mm 2 m/s 750 mmHg 53%
    10:00 +41°C° 0 mm 2 m/s 750 mmHg 45%
    11:00 +43°C° 0 mm 3 m/s 750 mmHg 42%
    12:00 +44°C° 0 mm 4 m/s 749 mmHg 39%
    13:00 +45°C° 0 mm 4 m/s 749 mmHg 37%
    14:00 +45°C° 0 mm 5 m/s 749 mmHg 39%
    15:00 +45°C° 0 mm 5 m/s 748 mmHg 41%
    16:00 +43°C° 0 mm 5 m/s 748 mmHg 44%
    17:00 +42°C° 0 mm 5 m/s 747 mmHg 47%
    18:00 +41°C° 0 mm 4 m/s 747 mmHg 50%
    19:00 +39°C° 0 mm 3 m/s 747 mmHg 54%
    20:00 +38°C° 0 mm 3 m/s 748 mmHg 55%
    21:00 +38°C° 0 mm 3 m/s 748 mmHg 57%
    22:00 +37°C° 0 mm 2 m/s 748 mmHg 58%
    23:00 +37°C° 0 mm 3 m/s 748 mmHg 59%

    Après-demain, 22 Août, Mercredi

    Heure Température Précipitation Vent Pression Humidité
    00:00 +37°C° 0 mm 3 m/s 748 mmHg 59%
    01:00 +37°C° 0 mm 3 m/s 748 mmHg 59%
    02:00 +36°C° 0 mm 3 m/s 748 mmHg 60%
    03:00 +36°C° 0 mm 3 m/s 748 mmHg 61%
    04:00 +36°C° 0 mm 3 m/s 748 mmHg 62%
    05:00 +36°C° 0 mm 3 m/s 748 mmHg 59%
    06:00 +36°C° 0 mm 3 m/s 749 mmHg 56%
    07:00 +36°C° 0 mm 3 m/s 749 mmHg 53%
    08:00 +38°C° 0 mm 3 m/s 749 mmHg 47%
    09:00 +40°C° 0 mm 3 m/s 750 mmHg 41%
    10:00 +42°C° 0 mm 2 m/s 750 mmHg 34%
    11:00 +44°C° 0 mm 3 m/s 750 mmHg 32%
    12:00 +45°C° 0 mm 3 m/s 749 mmHg 30%
    13:00 +48°C° 0 mm 4 m/s 749 mmHg 27%
    14:00 +47°C° 0 mm 4 m/s 748 mmHg 29%
    15:00 +47°C° 0 mm 4 m/s 748 mmHg 31%
    16:00 +46°C° 0 mm 5 m/s 747 mmHg 33%
    17:00 +44°C° 0 mm 4 m/s 747 mmHg 36%
    18:00 +43°C° 0 mm 3 m/s 747 mmHg 38%
    19:00 +40°C° 0 mm 2 m/s 747 mmHg 40%
    20:00 +40°C° 0 mm 2 m/s 748 mmHg 40%
    21:00 +39°C° 0 mm 2 m/s 748 mmHg 39%
    22:00 +39°C° 0 mm 2 m/s 748 mmHg 39%
    23:00 +38°C° 0 mm 2 m/s 748 mmHg 41%

    23 Août, Jeudi

    Heure Température Précipitation Vent Pression Humidité
    00:00 +38°C° 0 mm 3 m/s 748 mmHg 43%
    01:00 +38°C° 0 mm 3 m/s 748 mmHg 46%
    02:00 +37°C° 0 mm 3 m/s 748 mmHg 46%
    03:00 +37°C° 0 mm 2 m/s 748 mmHg 46%
    04:00 +36°C° 0 mm 2 m/s 747 mmHg 46%
    05:00 +37°C° 0 mm 2 m/s 748 mmHg 43%
    06:00 +38°C° 0 mm 2 m/s 748 mmHg 41%
    07:00 +38°C° 0 mm 2 m/s 748 mmHg 39%
    08:00 +40°C° 0 mm 2 m/s 749 mmHg 36%
    09:00 +41°C° 0 mm 2 m/s 749 mmHg 34%
    10:00 +43°C° 0 mm 2 m/s 749 mmHg 32%
    11:00 +45°C° 0 mm 2 m/s 749 mmHg 31%
    12:00 +45°C° 0 mm 3 m/s 749 mmHg 29%
    13:00 +47°C° 0 mm 4 m/s 748 mmHg 28%
    14:00 +47°C° 0 mm 4 m/s 748 mmHg 29%
    15:00 +45°C° 0 mm 4 m/s 747 mmHg 31%
    16:00 +46°C° 0 mm 5 m/s 747 mmHg 32%
    17:00 +44°C° 0 mm 4 m/s 747 mmHg 33%
    18:00 +43°C° 0 mm 4 m/s 747 mmHg 33%
    19:00 +42°C° 0 mm 3 m/s 747 mmHg 34%
    20:00 +42°C° 0 mm 3 m/s 747 mmHg 32%
    21:00 +42°C° 0 mm 3 m/s 748 mmHg 30%
    22:00 +40°C° 0 mm 3 m/s 748 mmHg 28%
    23:00 +40°C° 0 mm 3 m/s 748 mmHg 28%

    24 Août, Vendredi

    Heure Température Précipitation Vent Pression Humidité
    00:00 +40°C° 0 mm 3 m/s 748 mmHg 28%
    01:00 +39°C° 0 mm 3 m/s 748 mmHg 28%
    02:00 +39°C° 0 mm 3 m/s 747 mmHg 31%
    03:00 +38°C° 0 mm 4 m/s 747 mmHg 35%
    04:00 +38°C° 0 mm 4 m/s 747 mmHg 38%
    05:00 +38°C° 0 mm 4 m/s 748 mmHg 36%
    06:00 +38°C° 0 mm 4 m/s 748 mmHg 33%
    07:00 +39°C° 0 mm 3 m/s 748 mmHg 31%
    08:00 +40°C° 0 mm 3 m/s 749 mmHg 29%
    09:00 +43°C° 0 mm 3 m/s 749 mmHg 27%
    10:00 +45°C° 0 mm 3 m/s 749 mmHg 24%
    11:00 +45°C° 0 mm 3 m/s 749 mmHg 24%
    12:00 +46°C° 0 mm 3 m/s 749 mmHg 25%
    13:00 +47°C° 0 mm 4 m/s 748 mmHg 25%
    14:00 +47°C° 0 mm 4 m/s 748 mmHg 26%
    15:00 +47°C° 0 mm 4 m/s 747 mmHg 28%
    16:00 +46°C° 0 mm 5 m/s 747 mmHg 29%
    17:00 +44°C° 0 mm 4 m/s 747 mmHg 30%
    18:00 +43°C° 0 mm 4 m/s 747 mmHg 31%
    19:00 +42°C° 0 mm 3 m/s 747 mmHg 31%
    20:00 +40°C° 0 mm 3 m/s 747 mmHg 31%
    21:00 +40°C° 0 mm 2 m/s 748 mmHg 30%
    22:00 +39°C° 0 mm 2 m/s 748 mmHg 30%
    23:00 +39°C° 0 mm 2 m/s 748 mmHg 28%

    25 Août, Samedi

    Heure Température Précipitation Vent Pression Humidité
    00:00 +39°C° 0 mm 2 m/s 748 mmHg 27%
    01:00 +38°C° 0 mm 3 m/s 747 mmHg 26%
    02:00 +38°C° 0 mm 3 m/s 747 mmHg 28%
    03:00 +38°C° 0 mm 3 m/s 747 mmHg 29%
    04:00 +38°C° 0 mm 3 m/s 747 mmHg 31%
    05:00 +38°C° 0 mm 3 m/s 748 mmHg 29%
    06:00 +39°C° 0 mm 3 m/s 748 mmHg 27%
    07:00 +39°C° 0 mm 3 m/s 749 mmHg 25%
    08:00 +42°C° 0 mm 3 m/s 749 mmHg 23%
    09:00 +44°C° 0 mm 3 m/s 749 mmHg 22%
    10:00 +45°C° 0 mm 3 m/s 750 mmHg 20%
    11:00 +46°C° 0 mm 3 m/s 749 mmHg 21%
    12:00 +47°C° 0 mm 4 m/s 749 mmHg 22%
    13:00 +48°C° 0 mm 4 m/s 748 mmHg 22%
    14:00 +47°C° 0 mm 4 m/s 748 mmHg 23%
    15:00 +47°C° 0 mm 4 m/s 747 mmHg 24%
    16:00 +46°C° 0 mm 5 m/s 747 mmHg 25%
    17:00 +44°C° 0 mm 4 m/s 747 mmHg 26%
    18:00 +43°C° 0 mm 3 m/s 747 mmHg 27%
    19:00 +42°C° 0 mm 3 m/s 747 mmHg 27%
    20:00 +40°C° 0 mm 3 m/s 748 mmHg 26%
    21:00 +40°C° 0 mm 2 m/s 748 mmHg 24%
    22:00 +40°C° 0 mm 2 m/s 748 mmHg 23%
    23:00 +39°C° 0 mm 2 m/s 748 mmHg 23%
    Voir plus